| time (UTC) | temp F | wind direction | speed knots | gust knots | rain 1hr in | rain 24hr in | rain mn in | humidity % | barometer mb |
| 20260506035009 | 60 | 265 | 0.9 | 1.7 | 0.00 | 0.00 | 0.00 | 79 | 1015.4 |
| 20260506034508 | 61 | 284 | 0.0 | 1.7 | 0.00 | 0.00 | 0.00 | 77 | 1015.3 |
| 20260506034008 | 61 | 327 | 0.0 | 1.7 | 0.00 | 0.00 | 0.00 | 75 | 1015.3 |
| 20260506033506 | 61 | 202 | 0.9 | 2.6 | 0.00 | 0.00 | 0.00 | 74 | 1015.2 |
| 20260506033002 | 62 | 39 | 0.9 | 3.5 | 0.00 | 0.00 | 0.00 | 74 | 1015.2 |
| 20260506032502 | 62 | 86 | 0.9 | 3.5 | 0.00 | 0.00 | 0.00 | 73 | 1015.2 |
| 20260506032002 | 62 | 0 | 1.7 | 3.5 | 0.00 | 0.00 | 0.00 | 72 | 1015.2 |
| 20260506031500 | 62 | 30 | 1.7 | 4.3 | 0.00 | 0.00 | 0.00 | 72 | 1015.1 |
| 20260506031223 | 63 | 45 | 1.7 | 4.3 | 0.00 | 0.00 | 0.00 | 71 | 1015.1 |
| 20260506030500 | 63 | 10 | 1.7 | 4.3 | 0.00 | 0.00 | 0.00 | 70 | 1015.1 |
| 20260506030000 | 63 | 9 | 1.7 | 2.6 | 0.00 | 0.00 | 0.00 | 69 | 1015.1 |
| 20260506025500 | 63 | 355 | 1.7 | 3.5 | 0.00 | 0.00 | 0.00 | 69 | 1015.1 |
| 20260506025001 | 64 | 3 | 1.7 | 3.5 | 0.00 | 0.00 | 0.00 | 69 | 1014.9 |
| 20260506024501 | 64 | 342 | 0.9 | 1.7 | 0.00 | 0.00 | 0.00 | 68 | 1014.9 |
| 20260506024001 | 63 | 18 | 1.7 | 3.5 | 0.00 | 0.00 | 0.00 | 69 | 1014.9 |
| 20260506023459 | 63 | 29 | 1.7 | 4.3 | 0.00 | 0.00 | 0.00 | 69 | 1014.8 |
| 20260506022959 | 64 | 18 | 1.7 | 4.3 | 0.00 | 0.00 | 0.00 | 69 | 1014.9 |
| 20260506022457 | 64 | 31 | 0.9 | 2.6 | 0.00 | 0.00 | 0.00 | 68 | 1014.9 |
| 20260506021958 | 64 | 42 | 0.9 | 1.7 | 0.00 | 0.00 | 0.00 | 68 | 1014.9 |
| 20260506021457 | 65 | 0 | 0.0 | 1.7 | 0.00 | 0.00 | 0.00 | 67 | 1014.8 |
| 20260506020957 | 64 | 0 | 0.0 | 2.6 | 0.00 | 0.00 | 0.00 | 68 | 1014.9 |
| 20260506020456 | 64 | 56 | 0.9 | 2.6 | 0.00 | 0.00 | 0.00 | 70 | 1014.8 |
| 20260506015954 | 64 | 39 | 0.9 | 2.6 | 0.00 | 0.00 | 0.00 | 69 | 1014.8 |
| 20260506015945 | 64 | 337 | 0.9 | 3.5 | 0.00 | 0.00 | 0.00 | 69 | 1014.8 |
| 20260506014955 | 64 | 358 | 1.7 | 4.3 | 0.00 | 0.00 | 0.00 | 69 | 1014.9 |
| 20260506014456 | 64 | 293 | 2.6 | 5.2 | 0.00 | 0.00 | 0.00 | 69 | 1014.9 |
| 20260506013955 | 64 | 11 | 1.7 | 5.2 | 0.00 | 0.00 | 0.00 | 69 | 1014.9 |
| 20260506013719 | 64 | 16 | 1.7 | 5.2 | 0.00 | 0.00 | 0.00 | 68 | 1014.9 |
| 20260506012956 | 64 | 29 | 2.6 | 5.2 | 0.00 | 0.00 | 0.00 | 68 | 1014.9 |
| 20260506012942 | 63 | 227 | 2.6 | 5.2 | 0.00 | 0.00 | 0.00 | 69 | 1015.0 |
| 20260506011950 | 63 | 19 | 2.6 | 6.1 | 0.00 | 0.00 | 0.00 | 70 | 1014.9 |
| 20260506011712 | 63 | 16 | 2.6 | 6.1 | 0.00 | 0.00 | 0.00 | 70 | 1014.9 |
| 20260506011213 | 63 | 326 | 3.5 | 5.2 | 0.00 | 0.00 | 0.00 | 70 | 1014.9 |
| 20260506010450 | 63 | 345 | 2.6 | 5.2 | 0.00 | 0.00 | 0.00 | 70 | 1014.9 |
| 20260506005949 | 63 | 316 | 1.7 | 3.5 | 0.00 | 0.00 | 0.00 | 70 | 1014.9 |
| 20260506005450 | 63 | 286 | 2.6 | 6.1 | 0.00 | 0.00 | 0.00 | 70 | 1014.9 |
| 20260506004950 | 63 | 302 | 3.5 | 6.1 | 0.00 | 0.00 | 0.00 | 70 | 1015.0 |
| 20260506004939 | 63 | 359 | 3.5 | 6.1 | 0.00 | 0.00 | 0.00 | 70 | 1015.0 |
| 20260506003950 | 63 | 10 | 3.5 | 5.2 | 0.00 | 0.00 | 0.00 | 70 | 1015.0 |
| 20260506003450 | 63 | 349 | 2.6 | 5.2 | 0.00 | 0.00 | 0.00 | 70 | 1015.0 |
| 20260506002950 | 63 | 12 | 1.7 | 4.3 | 0.00 | 0.00 | 0.00 | 70 | 1015.0 |
| 20260506002448 | 63 | 351 | 1.7 | 5.2 | 0.00 | 0.00 | 0.00 | 69 | 1015.0 |
| 20260506001949 | 63 | 11 | 2.6 | 6.1 | 0.00 | 0.00 | 0.00 | 70 | 1015.1 |
| 20260506001447 | 63 | 352 | 2.6 | 6.1 | 0.00 | 0.00 | 0.00 | 71 | 1015.1 |
| 20260506000945 | 63 | 358 | 2.6 | 6.1 | 0.00 | 0.00 | 0.00 | 71 | 1015.1 |
| 20260506000445 | 63 | 311 | 2.6 | 6.1 | 0.00 | 0.00 | 0.00 | 71 | 1015.2 |
| 20260505235945 | 63 | 27 | 2.6 | 5.2 | 0.00 | 0.00 | 0.00 | 71 | 1015.2 |
| 20260505235445 | 63 | 300 | 2.6 | 6.1 | 0.00 | 0.00 | 0.00 | 71 | 1015.3 |
| 20260505234945 | 63 | 314 | 2.6 | 6.1 | 0.00 | 0.00 | 0.00 | 71 | 1015.3 |
| 20260505234445 | 62 | 349 | 3.5 | 6.1 | 0.00 | 0.00 | 0.00 | 71 | 1015.4 |
| 20260505233945 | 62 | 3 | 3.5 | 7.8 | 0.00 | 0.00 | 0.00 | 72 | 1015.4 |
| 20260505233445 | 62 | 8 | 3.5 | 7.8 | 0.00 | 0.00 | 0.00 | 72 | 1015.4 |
| 20260505232946 | 62 | 12 | 3.5 | 7.0 | 0.00 | 0.00 | 0.00 | 72 | 1015.4 |
| 20260505232445 | 62 | 333 | 3.5 | 7.0 | 0.00 | 0.00 | 0.00 | 72 | 1015.4 |
| 20260505231945 | 62 | 336 | 4.3 | 7.0 | 0.00 | 0.00 | 0.00 | 72 | 1015.5 |
| 20260505231445 | 62 | 32 | 4.3 | 7.8 | 0.00 | 0.00 | 0.00 | 71 | 1015.5 |
| 20260505230947 | 62 | 15 | 4.3 | 7.8 | 0.00 | 0.00 | 0.00 | 71 | 1015.5 |
| 20260505230442 | 62 | 20 | 4.3 | 7.8 | 0.00 | 0.00 | 0.00 | 71 | 1015.4 |
| 20260505225942 | 62 | 345 | 4.3 | 7.8 | 0.00 | 0.00 | 0.00 | 72 | 1015.5 |
| 20260505225443 | 62 | 2 | 4.3 | 7.8 | 0.00 | 0.00 | 0.00 | 72 | 1015.5 |
| 20260505224943 | 62 | 22 | 4.3 | 7.0 | 0.00 | 0.00 | 0.00 | 71 | 1015.5 |
| 20260505224442 | 62 | 350 | 4.3 | 7.8 | 0.00 | 0.00 | 0.00 | 73 | 1015.6 |
| 20260505223943 | 62 | 341 | 4.3 | 7.8 | 0.00 | 0.00 | 0.00 | 72 | 1015.6 |
| 20260505223443 | 63 | 337 | 3.5 | 7.8 | 0.00 | 0.00 | 0.00 | 72 | 1015.6 |
| 20260505223203 | 63 | 20 | 3.5 | 7.8 | 0.00 | 0.00 | 0.00 | 72 | 1015.7 |
| 20260505222710 | 63 | 352 | 3.5 | 7.0 | 0.00 | 0.00 | 0.00 | 72 | 1015.7 |
| 20260505221943 | 62 | 0 | 4.3 | 7.8 | 0.00 | 0.00 | 0.00 | 72 | 1015.7 |
| 20260505221444 | 63 | 357 | 3.5 | 7.8 | 0.00 | 0.00 | 0.00 | 72 | 1015.7 |
| 20260505220944 | 63 | 302 | 2.6 | 5.2 | 0.00 | 0.00 | 0.00 | 71 | 1015.7 |
| 20260505220706 | 62 | 299 | 3.5 | 7.8 | 0.00 | 0.00 | 0.00 | 72 | 1015.8 |
| 20260505215940 | 62 | 299 | 3.5 | 7.8 | 0.00 | 0.00 | 0.00 | 71 | 1015.8 |
| 20260505215437 | 63 | 264 | 3.5 | 6.1 | 0.00 | 0.00 | 0.00 | 71 | 1015.7 |
| 20260505214937 | 62 | 298 | 3.5 | 6.1 | 0.00 | 0.00 | 0.00 | 72 | 1015.8 |
| 20260505214438 | 63 | 330 | 3.5 | 6.1 | 0.00 | 0.00 | 0.00 | 72 | 1015.8 |
| 20260505213938 | 63 | 310 | 2.6 | 5.2 | 0.00 | 0.00 | 0.00 | 71 | 1015.8 |
| 20260505213438 | 63 | 268 | 1.7 | 5.2 | 0.00 | 0.00 | 0.00 | 70 | 1015.8 |
| 20260505212937 | 63 | 289 | 1.7 | 5.2 | 0.00 | 0.00 | 0.00 | 71 | 1015.9 |
| 20260505212437 | 63 | 256 | 2.6 | 6.1 | 0.00 | 0.00 | 0.00 | 71 | 1015.9 |
| 20260505211938 | 63 | 254 | 2.6 | 8.7 | 0.00 | 0.00 | 0.00 | 71 | 1015.9 |
| 20260505211438 | 63 | 292 | 1.7 | 8.7 | 0.00 | 0.00 | 0.00 | 70 | 1015.9 |
| 20260505210936 | 62 | 233 | 2.6 | 5.2 | 0.00 | 0.00 | 0.00 | 72 | 1016.0 |
| 20260505210436 | 62 | 126 | 2.6 | 6.1 | 0.00 | 0.00 | 0.00 | 72 | 1016.0 |
| 20260505210156 | 62 | 356 | 2.6 | 6.1 | 0.00 | 0.00 | 0.00 | 73 | 1016.1 |
| 20260505205435 | 62 | 95 | 1.7 | 4.3 | 0.00 | 0.00 | 0.00 | 74 | 1016.1 |
| 20260505204936 | 61 | 53 | 2.6 | 6.1 | 0.00 | 0.00 | 0.00 | 74 | 1016.1 |
| 20260505204436 | 61 | 351 | 3.5 | 6.1 | 0.00 | 0.00 | 0.00 | 74 | 1016.2 |
| 20260505203932 | 61 | 348 | 2.6 | 6.1 | 0.00 | 0.00 | 0.00 | 74 | 1016.2 |
| 20260505203433 | 61 | 0 | 2.6 | 5.2 | 0.00 | 0.00 | 0.00 | 75 | 1016.2 |
| 20260505202933 | 61 | 310 | 3.5 | 7.0 | 0.00 | 0.00 | 0.00 | 74 | 1016.2 |
| 20260505202433 | 61 | 349 | 3.5 | 7.0 | 0.00 | 0.00 | 0.00 | 74 | 1016.2 |
| 20260505201933 | 61 | 13 | 1.7 | 5.2 | 0.00 | 0.00 | 0.00 | 74 | 1016.2 |
| 20260505201657 | 61 | 28 | 2.6 | 7.0 | 0.00 | 0.00 | 0.00 | 75 | 1016.3 |
| 20260505200933 | 61 | 345 | 2.6 | 7.0 | 0.00 | 0.00 | 0.00 | 75 | 1016.3 |
| 20260505200434 | 61 | 346 | 2.6 | 7.0 | 0.00 | 0.00 | 0.00 | 75 | 1016.3 |
| 20260505195933 | 61 | 4 | 2.6 | 5.2 | 0.00 | 0.00 | 0.00 | 75 | 1016.3 |
| 20260505195433 | 60 | 0 | 2.6 | 5.2 | 0.00 | 0.00 | 0.00 | 75 | 1016.3 |
| 20260505195208 | 60 | 22 | 2.6 | 5.2 | 0.00 | 0.00 | 0.00 | 76 | 1016.3 |
| 20260505194433 | 60 | 330 | 2.6 | 5.2 | 0.00 | 0.00 | 0.00 | 76 | 1016.4 |
| 20260505193934 | 60 | 74 | 3.5 | 5.2 | 0.00 | 0.00 | 0.00 | 77 | 1016.4 |
| 20260505193431 | 60 | 27 | 2.6 | 5.2 | 0.00 | 0.00 | 0.00 | 78 | 1016.4 |
| 20260505192931 | 59 | 15 | 2.6 | 5.2 | 0.00 | 0.00 | 0.00 | 79 | 1016.5 |
| 20260505192431 | 60 | 23 | 2.6 | 5.2 | 0.00 | 0.00 | 0.00 | 79 | 1016.4 |
| 20260505191931 | 60 | 13 | 1.7 | 5.2 | 0.00 | 0.00 | 0.00 | 78 | 1016.5 |
| 20260505191431 | 60 | 309 | 1.7 | 5.2 | 0.00 | 0.00 | 0.00 | 75 | 1016.4 |
| 20260505191150 | 60 | 353 | 1.7 | 5.2 | 0.00 | 0.00 | 0.00 | 76 | 1016.5 |
| 20260505190431 | 59 | 300 | 1.7 | 4.3 | 0.00 | 0.00 | 0.00 | 76 | 1016.5 |
| 20260505185931 | 59 | 288 | 0.9 | 3.5 | 0.00 | 0.00 | 0.00 | 76 | 1016.5 |
| 20260505185656 | 59 | 0 | 0.9 | 3.5 | 0.00 | 0.00 | 0.00 | 77 | 1016.4 |
| 20260505184932 | 59 | 323 | 0.9 | 3.5 | 0.00 | 0.00 | 0.00 | 77 | 1016.4 |
| 20260505184653 | 59 | 0 | 0.9 | 3.5 | 0.00 | 0.00 | 0.00 | 78 | 1016.4 |
| 20260505183931 | 59 | 292 | 0.9 | 3.5 | 0.00 | 0.00 | 0.00 | 78 | 1016.5 |
| 20260505183431 | 59 | 298 | 0.9 | 3.5 | 0.00 | 0.00 | 0.00 | 78 | 1016.5 |
| 20260505182929 | 59 | 255 | 1.7 | 4.3 | 0.00 | 0.00 | 0.00 | 78 | 1016.5 |
| 20260505182429 | 58 | 283 | 1.7 | 4.3 | 0.00 | 0.00 | 0.00 | 79 | 1016.5 |
| 20260505181929 | 58 | 236 | 1.7 | 5.2 | 0.00 | 0.00 | 0.00 | 78 | 1016.4 |
| 20260505181429 | 58 | 298 | 2.6 | 5.2 | 0.00 | 0.00 | 0.00 | 78 | 1016.4 |
| 20260505180929 | 58 | 184 | 1.7 | 5.2 | 0.00 | 0.00 | 0.00 | 79 | 1016.4 |
| 20260505180429 | 58 | 181 | 1.7 | 4.3 | 0.00 | 0.00 | 0.00 | 78 | 1016.3 |
| 20260505175930 | 58 | 251 | 0.9 | 4.3 | 0.00 | 0.00 | 0.00 | 77 | 1016.3 |
| 20260505175429 | 58 | 331 | 0.9 | 3.5 | 0.00 | 0.00 | 0.00 | 78 | 1016.3 |
| 20260505174930 | 58 | 297 | 1.7 | 5.2 | 0.00 | 0.00 | 0.00 | 78 | 1016.3 |
| 20260505174429 | 58 | 284 | 1.7 | 5.2 | 0.00 | 0.00 | 0.00 | 78 | 1016.3 |
| 20260505174158 | 58 | 275 | 1.7 | 5.2 | 0.00 | 0.00 | 0.00 | 78 | 1016.3 |
| 20260505173429 | 58 | 259 | 1.7 | 5.2 | 0.00 | 0.00 | 0.00 | 78 | 1016.3 |
| 20260505172927 | 58 | 207 | 2.6 | 5.2 | 0.00 | 0.00 | 0.00 | 79 | 1016.3 |
| 20260505172427 | 58 | 195 | 2.6 | 6.1 | 0.00 | 0.00 | 0.00 | 79 | 1016.2 |
| 20260505172146 | 58 | 288 | 3.5 | 6.1 | 0.00 | 0.00 | 0.00 | 78 | 1016.2 |
| 20260505171424 | 58 | 196 | 2.6 | 6.1 | 0.00 | 0.00 | 0.00 | 78 | 1016.1 |
| 20260505170924 | 58 | 186 | 1.7 | 3.5 | 0.00 | 0.00 | 0.00 | 77 | 1016.1 |
| 20260505170424 | 58 | 141 | 1.7 | 3.5 | 0.00 | 0.00 | 0.00 | 78 | 1016.1 |
| 20260505165924 | 58 | 303 | 1.7 | 4.3 | 0.00 | 0.00 | 0.00 | 78 | 1016.0 |
| 20260505165651 | 58 | 291 | 1.7 | 4.3 | 0.00 | 0.00 | 0.00 | 78 | 1016.0 |
| 20260505164924 | 58 | 2 | 1.7 | 4.3 | 0.00 | 0.00 | 0.00 | 80 | 1016.0 |
| 20260505164423 | 58 | 153 | 1.7 | 4.3 | 0.00 | 0.00 | 0.00 | 80 | 1016.0 |
| 20260505163924 | 58 | 189 | 1.7 | 4.3 | 0.00 | 0.00 | 0.00 | 80 | 1016.0 |
| 20260505163424 | 58 | 280 | 0.9 | 5.2 | 0.00 | 0.00 | 0.00 | 80 | 1016.0 |
| 20260505162924 | 58 | 294 | 0.9 | 5.2 | 0.00 | 0.00 | 0.00 | 80 | 1016.0 |
| 20260505162425 | 57 | 279 | 1.7 | 4.3 | 0.00 | 0.00 | 0.00 | 81 | 1015.9 |
| 20260505162411 | 57 | 243 | 1.7 | 5.2 | 0.00 | 0.00 | 0.00 | 81 | 1015.9 |
| 20260505161651 | 57 | 180 | 1.7 | 5.2 | 0.00 | 0.00 | 0.00 | 82 | 1015.9 |
| 20260505160923 | 57 | 305 | 1.7 | 5.2 | 0.00 | 0.00 | 0.00 | 82 | 1015.9 |
| 20260505160427 | 56 | 0 | 1.7 | 5.2 | 0.00 | 0.00 | 0.00 | 82 | 1015.9 |
| 20260505152919 | 56 | 205 | 1.7 | 4.3 | 0.00 | 0.00 | 0.00 | 85 | 1015.8 |
| 20260505152419 | 55 | 267 | 1.7 | 4.3 | 0.00 | 0.00 | 0.00 | 85 | 1015.8 |
| 20260505151920 | 55 | 198 | 0.9 | 4.3 | 0.00 | 0.00 | 0.00 | 85 | 1015.8 |
| 20260505151419 | 55 | 254 | 0.9 | 3.5 | 0.00 | 0.00 | 0.00 | 85 | 1015.8 |
| 20260505150919 | 55 | 0 | 1.7 | 4.3 | 0.00 | 0.00 | 0.00 | 86 | 1015.8 |
| 20260505150648 | 55 | 291 | 1.7 | 4.3 | 0.00 | 0.00 | 0.00 | 86 | 1015.7 |
| 20260505140631 | 55 | 151 | 0.9 | 3.5 | 0.00 | 0.00 | 0.00 | 85 | 1015.1 |
| 20260505124909 | 55 | 273 | 1.7 | 4.3 | 0.00 | 0.00 | 0.00 | 85 | 1014.7 |
| 20260505124406 | 55 | 316 | 1.7 | 4.3 | 0.00 | 0.00 | 0.00 | 85 | 1014.7 |
| 20260505123906 | 55 | 272 | 0.9 | 4.3 | 0.00 | 0.00 | 0.00 | 85 | 1014.7 |
| 20260505123403 | 55 | 297 | 0.9 | 3.5 | 0.00 | 0.00 | 0.00 | 85 | 1014.6 |
| 20260505122903 | 55 | 193 | 0.9 | 3.5 | 0.00 | 0.00 | 0.00 | 85 | 1014.7 |
| 20260505122403 | 55 | 214 | 0.9 | 2.6 | 0.00 | 0.00 | 0.00 | 85 | 1014.7 |
| 20260505122126 | 55 | 302 | 0.9 | 2.6 | 0.00 | 0.00 | 0.00 | 85 | 1014.7 |
| 20260505121623 | 55 | 284 | 0.9 | 2.6 | 0.00 | 0.00 | 0.00 | 85 | 1014.7 |
| 20260505121126 | 55 | 305 | 0.9 | 3.5 | 0.00 | 0.00 | 0.00 | 85 | 1014.6 |
| 20260505120401 | 55 | 197 | 1.7 | 3.5 | 0.00 | 0.00 | 0.00 | 85 | 1014.6 |
| 20260505115901 | 55 | 287 | 1.7 | 4.3 | 0.00 | 0.00 | 0.00 | 84 | 1014.6 |
| 20260505115402 | 55 | 284 | 0.9 | 4.3 | 0.00 | 0.00 | 0.00 | 84 | 1014.6 |
| 20260505114901 | 55 | 279 | 0.9 | 1.7 | 0.00 | 0.00 | 0.00 | 84 | 1014.6 |
| 20260505114402 | 55 | 252 | 0.9 | 2.6 | 0.00 | 0.00 | 0.00 | 84 | 1014.6 |
| 20260505113900 | 55 | 286 | 0.9 | 2.6 | 0.00 | 0.00 | 0.00 | 84 | 1014.6 |
| 20260505113359 | 55 | 255 | 0.9 | 1.7 | 0.00 | 0.00 | 0.00 | 84 | 1014.6 |
| 20260505112859 | 55 | 69 | 0.9 | 1.7 | 0.00 | 0.00 | 0.00 | 84 | 1014.6 |
| 20260505112359 | 55 | 0 | 0.9 | 2.6 | 0.00 | 0.00 | 0.00 | 84 | 1014.5 |
| 20260505111856 | 55 | 192 | 0.9 | 2.6 | 0.00 | 0.00 | 0.00 | 84 | 1014.6 |
| 20260505111356 | 55 | 287 | 0.0 | 1.7 | 0.00 | 0.00 | 0.00 | 84 | 1014.6 |
| 20260505111122 | 55 | 0 | 0.0 | 1.7 | 0.00 | 0.00 | 0.00 | 85 | 1014.5 |
| 20260505110627 | 55 | 325 | 0.0 | 1.7 | 0.00 | 0.00 | 0.00 | 85 | 1014.5 |
| 20260505110112 | 55 | 185 | 0.0 | 3.5 | 0.00 | 0.00 | 0.00 | 85 | 1014.4 |
| 20260505101849 | 55 | 256 | 0.9 | 2.6 | 0.00 | 0.00 | 0.00 | 84 | 1014.1 |
| 20260505101348 | 55 | 179 | 0.9 | 2.6 | 0.00 | 0.00 | 0.00 | 84 | 1014.1 |
| 20260505100848 | 55 | 324 | 0.9 | 4.3 | 0.00 | 0.00 | 0.00 | 84 | 1014.1 |
| 20260505100345 | 55 | 49 | 0.9 | 4.3 | 0.00 | 0.00 | 0.00 | 84 | 1014.1 |
| 20260505095845 | 56 | 1 | 0.9 | 2.6 | 0.00 | 0.00 | 0.00 | 84 | 1014.1 |
| 20260505095345 | 56 | 0 | 0.9 | 2.6 | 0.00 | 0.00 | 0.00 | 84 | 1014.1 |
| 20260505094843 | 55 | 282 | 0.9 | 2.6 | 0.00 | 0.00 | 0.00 | 84 | 1014.1 |
| 20260505094606 | 55 | 313 | 0.0 | 2.6 | 0.00 | 0.00 | 0.00 | 85 | 1014.0 |
| 20260505093843 | 55 | 0 | 0.0 | 1.7 | 0.00 | 0.00 | 0.00 | 86 | 1014.0 |
| 20260505093340 | 55 | 274 | 0.0 | 1.7 | 0.00 | 0.00 | 0.00 | 87 | 1014.0 |
| 20260505092840 | 55 | 0 | 0.9 | 1.7 | 0.00 | 0.00 | 0.00 | 87 | 1014.0 |
| 20260505092601 | 55 | 0 | 0.9 | 2.6 | 0.00 | 0.00 | 0.00 | 87 | 1013.9 |
| 20260505092103 | 56 | 341 | 1.7 | 2.6 | 0.00 | 0.00 | 0.00 | 86 | 1013.9 |
| 20260505091340 | 56 | 356 | 1.7 | 2.6 | 0.00 | 0.00 | 0.00 | 86 | 1013.8 |
| 20260505090841 | 56 | 331 | 1.7 | 2.6 | 0.00 | 0.00 | 0.00 | 86 | 1013.8 |
| 20260505090341 | 56 | 34 | 1.7 | 3.5 | 0.00 | 0.00 | 0.00 | 86 | 1013.7 |
| 20260505085841 | 56 | 0 | 1.7 | 3.5 | 0.00 | 0.00 | 0.00 | 86 | 1013.7 |
| 20260505085826 | 56 | 356 | 1.7 | 2.6 | 0.00 | 0.00 | 0.00 | 86 | 1013.6 |
| 20260505084838 | 56 | 354 | 1.7 | 3.5 | 0.00 | 0.00 | 0.00 | 86 | 1013.6 |
| 20260505084338 | 56 | 36 | 1.7 | 3.5 | 0.00 | 0.00 | 0.00 | 86 | 1013.7 |
| 20260505083838 | 56 | 338 | 2.6 | 3.5 | 0.00 | 0.00 | 0.00 | 85 | 1013.7 |
| 20260505083338 | 56 | 35 | 2.6 | 3.5 | 0.00 | 0.00 | 0.00 | 85 | 1013.7 |
| 20260505082838 | 56 | 341 | 2.6 | 4.3 | 0.00 | 0.00 | 0.00 | 85 | 1013.6 |
| 20260505082834 | 56 | 10 | 2.6 | 4.3 | 0.00 | 0.00 | 0.00 | 84 | 1013.5 |
| 20260505081838 | 57 | 3 | 2.6 | 4.3 | 0.00 | 0.00 | 0.00 | 84 | 1013.5 |
| 20260505081338 | 57 | 347 | 2.6 | 4.3 | 0.00 | 0.00 | 0.00 | 84 | 1013.5 |
| 20260505080838 | 57 | 357 | 2.6 | 4.3 | 0.00 | 0.00 | 0.00 | 83 | 1013.5 |
| 20260505080338 | 57 | 22 | 2.6 | 5.2 | 0.00 | 0.00 | 0.00 | 83 | 1013.5 |
| 20260505075838 | 57 | 22 | 3.5 | 5.2 | 0.00 | 0.00 | 0.00 | 83 | 1013.4 |
| 20260505075338 | 58 | 24 | 2.6 | 5.2 | 0.00 | 0.00 | 0.00 | 82 | 1013.5 |
| 20260505074839 | 58 | 39 | 3.5 | 5.2 | 0.00 | 0.00 | 0.00 | 82 | 1013.4 |
| 20260505074605 | 58 | 28 | 3.5 | 5.2 | 0.00 | 0.00 | 0.00 | 82 | 1013.4 |
| 20260505073837 | 58 | 39 | 2.6 | 5.2 | 0.00 | 0.00 | 0.00 | 81 | 1013.2 |
| 20260505073335 | 59 | 15 | 2.6 | 3.5 | 0.00 | 0.00 | 0.00 | 80 | 1013.1 |
| 20260505072836 | 59 | 29 | 1.7 | 3.5 | 0.00 | 0.00 | 0.00 | 79 | 1013.1 |
| 20260505072336 | 59 | 275 | 0.9 | 2.6 | 0.00 | 0.00 | 0.00 | 78 | 1013.0 |
| 20260505072320 | 59 | 298 | 0.9 | 4.3 | 0.00 | 0.00 | 0.00 | 79 | 1013.0 |
| 20260505071337 | 59 | 0 | 1.7 | 4.3 | 0.00 | 0.00 | 0.00 | 78 | 1012.9 |
| 20260505070837 | 60 | 272 | 1.7 | 5.2 | 0.00 | 0.00 | 0.00 | 78 | 1012.8 |
| 20260505070336 | 60 | 273 | 0.9 | 5.2 | 0.00 | 0.00 | 0.00 | 78 | 1012.8 |
| 20260505070104 | 60 | 276 | 0.9 | 1.7 | 0.00 | 0.00 | 0.00 | 78 | 1012.7 |
| 20260505065336 | 60 | 271 | 0.0 | 1.7 | 0.00 | 0.00 | 0.00 | 78 | 1012.7 |
| 20260505064834 | 60 | 303 | 0.9 | 2.6 | 0.00 | 0.00 | 0.00 | 77 | 1012.6 |
| 20260505064334 | 60 | 311 | 0.9 | 2.6 | 0.00 | 0.00 | 0.00 | 77 | 1012.5 |
| 20260505063834 | 60 | 277 | 0.9 | 4.3 | 0.00 | 0.00 | 0.00 | 76 | 1012.4 |
| 20260505063604 | 60 | 217 | 1.7 | 4.3 | 0.00 | 0.00 | 0.00 | 76 | 1012.4 |
| 20260505062838 | 61 | 269 | 1.7 | 4.3 | 0.00 | 0.00 | 0.00 | 76 | 1012.3 |
| 20260505062337 | 61 | 224 | 0.9 | 4.3 | 0.00 | 0.00 | 0.00 | 76 | 1012.3 |
| 20260505062056 | 61 | 294 | 0.9 | 1.7 | 0.00 | 0.00 | 0.00 | 78 | 1012.2 |
| 20260505061338 | 61 | 328 | 0.9 | 3.5 | 0.00 | 0.00 | 0.00 | 77 | 1012.1 |
| 20260505060837 | 62 | 309 | 0.9 | 3.5 | 0.00 | 0.00 | 0.00 | 76 | 1012.1 |
| 20260505060337 | 62 | 313 | 0.9 | 1.7 | 0.00 | 0.00 | 0.00 | 76 | 1012.0 |
| 20260505060324 | 62 | 309 | 0.9 | 2.6 | 0.00 | 0.00 | 0.00 | 75 | 1012.0 |
| 20260505055338 | 62 | 319 | 1.7 | 3.5 | 0.00 | 0.00 | 0.00 | 74 | 1012.0 |
| 20260505054838 | 63 | 326 | 1.7 | 3.5 | 0.00 | 0.00 | 0.00 | 74 | 1011.9 |
| 20260505054559 | 63 | 326 | 0.9 | 2.6 | 0.00 | 0.00 | 0.00 | 73 | 1011.9 |
| 20260505053838 | 63 | 341 | 0.9 | 2.6 | 0.00 | 0.00 | 0.00 | 73 | 1011.9 |
| 20260505053338 | 64 | 225 | 1.7 | 3.5 | 0.00 | 0.00 | 0.00 | 72 | 1011.9 |
| 20260505053055 | 64 | 303 | 1.7 | 3.5 | 0.00 | 0.00 | 0.00 | 71 | 1011.8 |
| 20260505052331 | 64 | 314 | 2.6 | 4.3 | 0.00 | 0.00 | 0.00 | 71 | 1011.8 |
| 20260505051832 | 64 | 254 | 2.6 | 4.3 | 0.00 | 0.00 | 0.00 | 70 | 1011.8 |
| 20260505051332 | 65 | 285 | 2.6 | 5.2 | 0.00 | 0.00 | 0.00 | 70 | 1011.8 |
| 20260505050832 | 65 | 324 | 2.6 | 7.0 | 0.00 | 0.00 | 0.00 | 69 | 1011.7 |
| 20260505050332 | 65 | 307 | 2.6 | 7.0 | 0.00 | 0.00 | 0.00 | 69 | 1011.6 |
| 20260505041329 | 68 | 285 | 0.9 | 4.3 | 0.00 | 0.00 | 0.00 | 69 | 1010.9 |
| 20260505040826 | 68 | 272 | 2.6 | 7.0 | 0.00 | 0.00 | 0.00 | 69 | 1010.9 |
| 20260505040326 | 69 | 276 | 2.6 | 7.0 | 0.00 | 0.00 | 0.00 | 68 | 1010.8 |
| 20260505035827 | 69 | 245 | 2.6 | 7.0 | 0.00 | 0.00 | 0.00 | 69 | 1010.7 |